Location: *
(40.9167°N, 9.5000°E)
Time: 21:05:48
(UTC+00:00)

Cosmos 2058 - Pass Details

Date: 09 April 2020
Orbit: 563 x 583 km, 82.5° (Epoch: 30 May)

Event Time Altitude Azimuth Distance (km) Brightness Sun altitude
Rises 19:15:40 0° 8° (N) 2,773 6.6 -15.1°
Reaches altitude 10° 19:18:21 10° 26° (NNE) 1,874 5.5 -15.6°
Enters shadow 19:21:12 20° 69° (ENE) 1,363 4.4 -16.1°
